Location: Bluff Heights
(33.7692°N, 118.1592°W)
Time: 23:05:54
(UTC+00:00)

Vanguard 1 Rocket - All Passes

Search period start: 28 July 2021 00:00
Search period end: 07 August 2021 00:00
Orbit: 650 x 4226 km, 34.3° (Epoch: 27 July)

Date Brightness Start Highest point End Pass type
(mag) Time Alt. Az. Time Alt. Az. Time Alt. Az.
28 Jul - 00:39:53 10° W 00:45:15 36° SSW 00:49:20 10° SE daylight
28 Jul - 15:52:43 10° SSW 16:12:14 34° SSE 16:24:41 10° E daylight
28 Jul - 18:22:26 10° SW 18:41:32 66° SSE 18:51:07 10° E daylight
28 Jul - 20:55:52 10° W 21:08:54 87° N 21:15:27 10° E daylight
28 Jul - 23:27:00 10° W 23:34:35 64° SSW 23:39:18 10° ESE daylight
29 Jul - 01:57:12 10° SW 01:58:29 11° SW 01:59:43 10° SSW daylight
29 Jul - 14:40:57 10° S 14:58:19 24° SE 15:11:10 10° E daylight
29 Jul - 17:07:22 10° SW 17:28:30 54° SSE 17:40:01 10° E daylight
29 Jul - 19:40:20 10° WSW 19:56:53 86° S 20:04:56 10° E daylight
29 Jul - 22:13:20 10° W 22:23:30 86° SSW 22:29:00 10° ESE daylight
30 Jul - 00:43:06 10° W 00:48:01 26° SW 00:51:48 10° SSE daylight
30 Jul - 13:32:27 10° SSE 13:44:10 15° SE 13:54:17 10° ESE daylight
30 Jul - 15:53:16 10° SSW 16:14:55 42° SSE 16:28:17 10° E daylight
30 Jul - 18:24:28 10° WSW 18:44:21 75° SSE 18:54:14 10° E daylight
30 Jul - 20:58:36 10° W 21:11:56 87° N 21:18:36 10° E daylight
30 Jul - 23:29:54 10° W 23:37:28 51° SSW 23:42:11 10° SE daylight
31 Jul - 14:40:37 10° SSW 15:00:55 32° SE 15:15:25 10° E daylight
31 Jul - 17:08:55 10° SW 17:31:14 63° SSE 17:43:12 10° E daylight
31 Jul - 19:42:54 10° W 19:59:51 90° NNW 20:08:03 10° E daylight
31 Jul - 22:16:06 10° W 22:26:30 77° SSW 22:32:06 10° ESE daylight
01 Aug - 00:46:37 10° W 00:50:38 18° SW 00:53:54 10° S daylight
01 Aug - 13:30:08 10° S 13:46:44 21° SE 14:00:28 10° E daylight
01 Aug - 15:54:16 10° SW 16:17:31 51° SSE 16:31:36 10° E daylight
01 Aug - 18:26:43 10° WSW 18:47:11 82° SSE 18:57:19 10° E daylight
01 Aug - 21:01:19 10° W 21:14:57 90° N 21:21:43 10° E daylight
01 Aug - 23:32:51 10° W 23:40:14 39° SSW 23:44:55 10° SE daylight
02 Aug - 12:25:17 10° SSE 12:32:32 12° SE 12:39:26 10° ESE visible
02 Aug - 14:40:57 10° SSW 15:03:23 39° SE 15:19:08 10° E daylight
02 Aug - 17:10:45 10° WSW 17:33:55 72° SSE 17:46:17 10° ENE daylight
02 Aug - 19:45:32 10° W 20:02:49 87° N 20:11:10 10° E daylight
02 Aug - 22:18:51 10° WNW 22:29:24 66° SSW 22:35:05 10° ESE daylight
03 Aug - 00:50:55 10° WSW 00:53:10 12° SW 00:55:09 10° SSW daylight
03 Aug - 13:29:25 10° S 13:49:07 28° SE 14:05:08 10° E daylight
03 Aug - 15:55:38 10° SW 16:20:03 60° SSE 16:34:45 10° ENE daylight
03 Aug - 18:29:07 10° WSW 18:50:03 88° S 19:00:24 10° E daylight
03 Aug - 21:04:00 10° W 21:17:56 85° SSW 21:24:50 10° ESE daylight
03 Aug - 23:35:55 10° W 23:42:51 29° SW 23:47:25 10° SSE daylight
04 Aug - 12:20:49 10° SSE 12:34:57 18° SE 12:48:00 10° E visible
04 Aug - 14:41:48 10° SSW 15:05:46 47° SSE 15:22:30 10° E daylight
04 Aug - 17:12:49 10° WSW 17:36:38 79° SSE 17:49:19 10° E daylight
04 Aug - 19:48:09 10° W 20:05:47 88° N 20:14:18 10° E daylight
04 Aug - 22:21:37 10° WNW 22:32:11 54° SSW 22:37:57 10° SE daylight
05 Aug - 13:29:33 10° SSW 13:51:21 35° SE 14:09:04 10° E daylight
05 Aug - 15:57:18 10° SW 16:22:34 68° SSE 16:37:49 10° ENE daylight
05 Aug - 18:31:38 10° W 18:52:55 89° N 19:03:29 10° E daylight
05 Aug - 21:06:39 10° W 21:20:51 77° SSW 21:27:53 10° ESE daylight
05 Aug - 23:39:14 10° W 23:45:19 22° SW 23:49:34 10° S daylight
06 Aug - 12:19:26 10° S 12:37:08 24° SE 12:53:29 10° E visible
06 Aug - 14:43:02 10° SW 15:08:06 56° SSE 15:25:40 10° ENE daylight
06 Aug - 17:15:05 10° WSW 17:39:21 85° SSE 17:52:21 10° E daylight
06 Aug - 19:50:47 10° W 20:08:44 89° S 20:17:24 10° E daylight
06 Aug - 22:24:24 10° WNW 22:34:49 43° SW 22:40:39 10° SE daylight
